Flag for Yemen Weather past 2 weeks in Al Hudaydah, Yemen

Now
84 °F

Clear.


Feels Like: 92 °F
Forecast: 84 / 96 °F
Wind: 5 mph from North

Location: Hodeidah

Current Time: Sep 21, 2014 at 3:49:15 AM

Latest Report: Sep 21, 2014 at 3:00 AM


Visibility: 10 mi

Pressure: 29.74 "Hg

Humidity: 74%

Dew point: 75 °F

Location of Al HudaydahLocation

Historic Weather in Al Hudaydah — Graph

°F

Al Hudaydah temperature yesterday

Maximum temperature yesterday: 97 °F (at 12:00 PM)
Minimum temperature yesterday: 84 °F (at 6:00 AM)
Average temperature yesterday: 90 °F

Past Weeks' High & Low Weather Summary

 TemperatureHumidityPressure
High99 °F (Sep 14, 1:00 PM)100% (Sep 10, 11:00 AM)29.83 "Hg (Sep 10, 11:00 AM)
Low75 °F (Sep 10, 11:00 AM)37% (Sep 14, 2:00 PM)29.62 "Hg (Sep 6, 3:00 AM)
Average90 °F67%29.72 "Hg
* Reported Sep 6 3:00 AM — Sep 21 2:00 AM, Al Hudaydah, Weather by CustomWeather, © 2014

Note: Actual official high and low records may vary slightly from our data, if they occured in-between our weather recording intervals... More about our weather records

Advertising

Al Hudaydah weather history for previous 24 hours

 ConditionsComfort  
Time TempWeatherWind HumidityBarometerVisibility
2:00 AM
Sep 21
84 °FClear.1 mph74%29.74 "Hg10 mi
1:00 AM86 °FClear.1 mph75%29.74 "Hg10 mi
12:00 AM86 °FClear.2 mph66%29.77 "Hg10 mi
11:00 PM
Sep 20
84 °FClear.3 mph74%29.77 "Hg10 mi
10:00 PM86 °FClear.3 mph66%29.74 "Hg10 mi
9:00 PM86 °FClear.3 mph66%29.74 "Hg10 mi
4:00 PM91 °FScattered clouds.14 mph75%29.68 "Hg4 mi
3:00 PM93 °FThunderstorms. Scattered clouds.9 mph71%29.68 "Hg5 mi
2:00 PM93 °FPassing clouds.15 mph71%29.68 "HgN/A
1:00 PM95 °FPassing clouds.14 mph67%29.71 "HgN/A
12:00 PM97 °FPassing clouds.14 mph63%29.77 "HgN/A
11:00 AM95 °FPassing clouds.12 mph67%29.77 "HgN/A
10:00 AM93 °FPassing clouds.12 mph71%29.80 "Hg5 mi
6:00 AM84 °FHaze.2 mph84%29.71 "Hg3 mi
5:00 AM86 °FClear.1 mph84%29.71 "Hg10 mi
4:00 AM86 °FClear.1 mph84%29.71 "Hg10 mi
3:00 AM88 °FClear.2 mph79%29.71 "Hg10 mi
Weather by CustomWeather, © 2014

See weather overviewHow to use our weather pages